Location: Kuppenheim
(48.8299°N, 8.2568°E)
Time: 10:09:36
(UTC+00:00)

Cosmos 1943 Rocket - Pass Details

Date: 20 June 2021
Orbit: 813 x 843 km, 71.0° (Epoch: 03 August)

Event Time Altitude Azimuth Distance (km) Brightness Sun altitude
Rises 01:22:07 0° 314° (NW) 3,346 5.5 -13.4°
Reaches altitude 10° 01:26:42 10° 279° (W) 2,410 4.4 -13.1°
Maximum altitude 01:27:58 11° 265° (W) 2,352 4.2 -13.0°
Drops below altitude 10° 01:29:15 10° 252° (WSW) 2,408 4.1 -12.9°
Enters shadow 01:29:35 10° 248° (WSW) 2,439 4.2 -12.8°
